Year,Month,Day,Hour,Minute,Value (Times are PST for windspeed in km/hr)
2016,03,14,00,00,15.20
2016,03,14,00,01,14.30
2016,03,14,00,02,21.50
2016,03,14,00,03,21.50
2016,03,14,00,04,25.10
2016,03,14,00,05,19.80
2016,03,14,00,06,22.40
2016,03,14,00,07,24.80
2016,03,14,00,08,16.50
2016,03,14,00,09,20.20
2016,03,14,00,10,21.60
2016,03,14,00,11,16.60
2016,03,14,00,12,15.30
2016,03,14,00,13,13.60
2016,03,14,00,14,11.40
2016,03,14,00,15,14.60
2016,03,14,00,16,13.60
2016,03,14,00,17,12.50
2016,03,14,00,18,14.40
2016,03,14,00,19,9.40
2016,03,14,00,20,10.90
2016,03,14,00,21,12.00
2016,03,14,00,22,10.90
2016,03,14,00,23,12.50
2016,03,14,00,24,11.60
2016,03,14,00,25,13.90
2016,03,14,00,26,10.50
2016,03,14,00,27,7.80
2016,03,14,00,28,6.00
2016,03,14,00,29,8.50
2016,03,14,00,30,9.60
2016,03,14,00,31,8.10
2016,03,14,00,32,5.60
2016,03,14,00,33,5.50
2016,03,14,00,34,5.80
2016,03,14,00,35,5.40
2016,03,14,00,36,5.90
2016,03,14,00,37,6.50
2016,03,14,00,38,6.70
2016,03,14,00,39,5.80
2016,03,14,00,40,5.20
2016,03,14,00,41,6.10
2016,03,14,00,42,5.10
2016,03,14,00,43,4.70
2016,03,14,00,44,3.60
2016,03,14,00,45,3.10
2016,03,14,00,46,2.90
2016,03,14,00,47,2.30
2016,03,14,00,48,1.80
2016,03,14,00,49,2.10
2016,03,14,00,50,2.40
2016,03,14,00,51,2.20
2016,03,14,00,52,2.10
2016,03,14,00,53,1.80
2016,03,14,00,54,1.50
2016,03,14,00,55,1.30
2016,03,14,00,56,1.80
2016,03,14,00,57,0.80
2016,03,14,00,58,0.40
2016,03,14,00,59,0.00
2016,03,14,01,00,0.70
2016,03,14,01,01,0.40
2016,03,14,01,02,0.00
2016,03,14,01,03,0.00
2016,03,14,01,04,0.00
2016,03,14,01,05,0.10
2016,03,14,01,06,1.80
2016,03,14,01,07,0.00
2016,03,14,01,08,0.80
2016,03,14,01,09,1.90
2016,03,14,01,10,1.70
2016,03,14,01,11,1.30
2016,03,14,01,12,1.60
2016,03,14,01,13,0.40
2016,03,14,01,14,1.90
2016,03,14,01,15,2.20
2016,03,14,01,16,0.40
2016,03,14,01,17,2.00
2016,03,14,01,18,2.40
2016,03,14,01,19,2.20
2016,03,14,01,20,1.20
2016,03,14,01,21,1.10
2016,03,14,01,22,1.90
2016,03,14,01,23,2.40
2016,03,14,01,24,2.60
2016,03,14,01,25,2.40
2016,03,14,01,26,2.60
2016,03,14,01,27,3.20
2016,03,14,01,28,3.70
2016,03,14,01,29,3.50
2016,03,14,01,30,3.60
2016,03,14,01,31,2.90
2016,03,14,01,32,3.40
2016,03,14,01,33,1.70
2016,03,14,01,34,2.30
2016,03,14,01,35,0.90
2016,03,14,01,36,1.60
2016,03,14,01,37,0.90
2016,03,14,01,38,0.40
2016,03,14,01,39,0.00
2016,03,14,01,40,0.00
2016,03,14,01,41,0.00
2016,03,14,01,42,0.00
2016,03,14,01,43,2.40
2016,03,14,01,44,3.20
2016,03,14,01,45,2.30
2016,03,14,01,46,1.90
2016,03,14,01,47,0.80
2016,03,14,01,48,1.80
2016,03,14,01,49,3.00
2016,03,14,01,50,0.20
2016,03,14,01,51,1.40
2016,03,14,01,52,1.80
2016,03,14,01,53,1.20
2016,03,14,01,54,0.00
2016,03,14,01,55,0.70
2016,03,14,01,56,1.90
2016,03,14,01,57,3.10
2016,03,14,01,58,4.10
2016,03,14,01,59,3.90
2016,03,14,02,00,3.60
2016,03,14,02,01,2.90
2016,03,14,02,02,4.10
2016,03,14,02,03,4.80
2016,03,14,02,04,5.90
2016,03,14,02,05,5.70
2016,03,14,02,06,5.00
2016,03,14,02,07,3.10
2016,03,14,02,08,4.70
2016,03,14,02,09,3.10
2016,03,14,02,10,5.80
2016,03,14,02,11,6.40
2016,03,14,02,12,7.80
2016,03,14,02,13,5.40
2016,03,14,02,14,4.60
2016,03,14,02,15,4.00
2016,03,14,02,16,3.90
2016,03,14,02,17,6.00
2016,03,14,02,18,6.40
2016,03,14,02,19,6.40
2016,03,14,02,20,6.00
2016,03,14,02,21,5.00
2016,03,14,02,22,3.10
2016,03,14,02,23,3.20
2016,03,14,02,24,3.00
2016,03,14,02,25,3.60
2016,03,14,02,26,3.80
2016,03,14,02,27,2.40
2016,03,14,02,28,4.60
2016,03,14,02,29,2.90
2016,03,14,02,30,4.70
2016,03,14,02,31,3.70
2016,03,14,02,32,3.10
2016,03,14,02,33,5.40
2016,03,14,02,34,3.50
2016,03,14,02,35,4.40
2016,03,14,02,36,2.80
2016,03,14,02,37,3.50
2016,03,14,02,38,3.60
2016,03,14,02,39,4.80
2016,03,14,02,40,5.00
2016,03,14,02,41,4.20
2016,03,14,02,42,5.00
2016,03,14,02,43,4.10
2016,03,14,02,44,4.60
2016,03,14,02,45,5.10
2016,03,14,02,46,11.00
2016,03,14,02,47,7.80
2016,03,14,02,48,8.40
2016,03,14,02,49,8.90
2016,03,14,02,50,6.40
2016,03,14,02,51,10.00
2016,03,14,02,52,12.90
2016,03,14,02,53,9.80
2016,03,14,02,54,14.10
2016,03,14,02,55,14.80
2016,03,14,02,56,12.00
2016,03,14,02,57,10.90
2016,03,14,02,58,9.60
2016,03,14,02,59,7.90
2016,03,14,03,00,11.10
2016,03,14,03,01,7.50
2016,03,14,03,02,7.60
2016,03,14,03,03,6.40
2016,03,14,03,04,10.60
2016,03,14,03,05,7.10
2016,03,14,03,06,4.60
2016,03,14,03,07,5.50
2016,03,14,03,08,7.70
2016,03,14,03,09,5.30
2016,03,14,03,10,4.60
2016,03,14,03,11,4.00
2016,03,14,03,12,3.40
2016,03,14,03,13,4.20
2016,03,14,03,14,3.80
2016,03,14,03,15,2.60
2016,03,14,03,16,2.30
2016,03,14,03,17,1.80
2016,03,14,03,18,2.90
2016,03,14,03,19,2.80
2016,03,14,03,20,2.40
2016,03,14,03,21,2.60
2016,03,14,03,22,2.30
2016,03,14,03,23,1.80
2016,03,14,03,24,2.10
2016,03,14,03,25,1.80
2016,03,14,03,26,1.40
2016,03,14,03,27,1.00
2016,03,14,03,28,1.70
2016,03,14,03,29,1.00
2016,03,14,03,30,1.80
2016,03,14,03,31,2.90
2016,03,14,03,32,2.30
2016,03,14,03,33,1.80
2016,03,14,03,34,2.70
2016,03,14,03,35,1.20
2016,03,14,03,36,1.90
2016,03,14,03,37,3.40
2016,03,14,03,38,2.80
2016,03,14,03,39,1.10
2016,03,14,03,40,2.30
2016,03,14,03,41,3.30
2016,03,14,03,42,3.30
2016,03,14,03,43,3.50
2016,03,14,03,44,3.20
2016,03,14,03,45,0.90
2016,03,14,03,46,1.40
2016,03,14,03,47,1.00
2016,03,14,03,48,0.30
2016,03,14,03,49,1.30
2016,03,14,03,50,1.30
2016,03,14,03,51,3.80
2016,03,14,03,52,5.20
2016,03,14,03,53,8.90
2016,03,14,03,54,11.90
2016,03,14,03,55,6.70
2016,03,14,03,56,6.90
2016,03,14,03,57,4.50
2016,03,14,03,58,3.40
2016,03,14,03,59,6.50
2016,03,14,04,00,7.80
2016,03,14,04,01,5.30
2016,03,14,04,02,5.70
2016,03,14,04,03,6.20
2016,03,14,04,04,2.80
2016,03,14,04,05,7.00
2016,03,14,04,06,6.10
2016,03,14,04,07,8.70
2016,03,14,04,08,4.50
2016,03,14,04,09,6.00
2016,03,14,04,10,6.20
2016,03,14,04,11,6.70
2016,03,14,04,12,5.30
2016,03,14,04,13,5.10
2016,03,14,04,14,6.70
2016,03,14,04,15,4.40
2016,03,14,04,16,2.80
2016,03,14,04,17,3.60
2016,03,14,04,18,3.90
2016,03,14,04,19,2.10
2016,03,14,04,20,2.50
2016,03,14,04,21,4.20
2016,03,14,04,22,2.20
2016,03,14,04,23,1.50
2016,03,14,04,24,3.50
2016,03,14,04,25,2.60
2016,03,14,04,26,2.50
2016,03,14,04,27,3.20
2016,03,14,04,28,2.80
2016,03,14,04,29,1.50
2016,03,14,04,30,1.20
2016,03,14,04,31,0.20
2016,03,14,04,32,0.00
2016,03,14,04,33,1.10
2016,03,14,04,34,3.30
2016,03,14,04,35,3.50
2016,03,14,04,36,1.50
2016,03,14,04,37,2.10
2016,03,14,04,38,3.70
2016,03,14,04,39,6.80
2016,03,14,04,40,5.30
2016,03,14,04,41,3.40
2016,03,14,04,42,2.40
2016,03,14,04,43,3.20
2016,03,14,04,44,2.90
2016,03,14,04,45,4.00
2016,03,14,04,46,4.50
2016,03,14,04,47,2.10
2016,03,14,04,48,3.00
2016,03,14,04,49,3.70
2016,03,14,04,50,3.30
2016,03,14,04,51,2.60
2016,03,14,04,52,3.10
2016,03,14,04,53,4.20
2016,03,14,04,54,6.10
2016,03,14,04,55,6.40
2016,03,14,04,56,5.60
2016,03,14,04,57,5.60
2016,03,14,04,58,5.70
2016,03,14,04,59,6.80
2016,03,14,05,00,8.10
2016,03,14,05,01,7.00
2016,03,14,05,02,8.20
2016,03,14,05,03,9.20
2016,03,14,05,04,8.90
2016,03,14,05,05,9.20
2016,03,14,05,06,8.10
2016,03,14,05,07,8.20
2016,03,14,05,08,8.60
2016,03,14,05,09,10.20
2016,03,14,05,10,12.70
2016,03,14,05,11,12.20
2016,03,14,05,12,14.10
2016,03,14,05,13,13.60
2016,03,14,05,14,19.80
2016,03,14,05,15,11.40
2016,03,14,05,16,8.50
2016,03,14,05,17,11.10
2016,03,14,05,18,8.00
2016,03,14,05,19,7.80
2016,03,14,05,20,15.20
2016,03,14,05,21,12.10
2016,03,14,05,22,12.30
2016,03,14,05,23,8.50
2016,03,14,05,24,7.20
2016,03,14,05,25,9.30
2016,03,14,05,26,13.30
2016,03,14,05,27,7.70
2016,03,14,05,28,10.20
2016,03,14,05,29,13.80
2016,03,14,05,30,9.70
2016,03,14,05,31,7.40
2016,03,14,05,32,6.00
2016,03,14,05,33,6.50
2016,03,14,05,34,8.00
2016,03,14,05,35,8.20
2016,03,14,05,36,6.60
2016,03,14,05,37,8.70
2016,03,14,05,38,6.10
2016,03,14,05,39,8.80
2016,03,14,05,40,6.90
2016,03,14,05,41,7.00
2016,03,14,05,42,11.30
2016,03,14,05,43,12.50
2016,03,14,05,44,10.40
2016,03,14,05,45,7.80
2016,03,14,05,46,6.70
2016,03,14,05,47,8.90
2016,03,14,05,48,7.90
2016,03,14,05,49,8.00
2016,03,14,05,50,10.10
2016,03,14,05,51,6.50
2016,03,14,05,52,7.20
2016,03,14,05,53,6.90
2016,03,14,05,54,7.30
2016,03,14,05,55,7.40
2016,03,14,05,56,5.80
2016,03,14,05,57,7.40
2016,03,14,05,58,5.60
2016,03,14,05,59,4.80
2016,03,14,06,00,5.90
2016,03,14,06,01,6.00
2016,03,14,06,02,6.10
2016,03,14,06,03,5.30
2016,03,14,06,04,5.00
2016,03,14,06,05,6.40
2016,03,14,06,06,5.10
2016,03,14,06,07,4.20
2016,03,14,06,08,4.20
2016,03,14,06,09,2.80
2016,03,14,06,10,1.40
2016,03,14,06,11,0.00
2016,03,14,06,12,0.40
2016,03,14,06,13,1.80
2016,03,14,06,14,2.20
2016,03,14,06,15,5.20
2016,03,14,06,16,3.60
2016,03,14,06,17,3.20
2016,03,14,06,18,7.50
2016,03,14,06,19,6.60
2016,03,14,06,20,5.70
2016,03,14,06,21,3.80
2016,03,14,06,22,5.20
2016,03,14,06,23,3.40
2016,03,14,06,24,4.50
2016,03,14,06,25,4.20
2016,03,14,06,26,2.50
2016,03,14,06,27,3.80
2016,03,14,06,28,3.20
2016,03,14,06,29,3.70
2016,03,14,06,30,6.90
2016,03,14,06,31,3.40
2016,03,14,06,32,3.30
2016,03,14,06,33,3.40
2016,03,14,06,34,3.20
2016,03,14,06,35,3.40
2016,03,14,06,36,4.30
2016,03,14,06,37,4.80
2016,03,14,06,38,5.30
2016,03,14,06,39,4.10
2016,03,14,06,40,4.30
2016,03,14,06,41,3.10
2016,03,14,06,42,6.10
2016,03,14,06,43,5.20
2016,03,14,06,44,2.80
2016,03,14,06,45,2.60
2016,03,14,06,46,3.50
2016,03,14,06,47,4.50
2016,03,14,06,48,3.10
2016,03,14,06,49,4.40
2016,03,14,06,50,3.40
2016,03,14,06,51,2.00
2016,03,14,06,52,2.30
2016,03,14,06,53,2.00
2016,03,14,06,54,3.40
2016,03,14,06,55,3.50
2016,03,14,06,56,3.70
2016,03,14,06,57,3.90
2016,03,14,06,58,2.10
2016,03,14,06,59,2.90
2016,03,14,07,00,2.90
2016,03,14,07,01,3.80
2016,03,14,07,02,6.30
2016,03,14,07,03,7.30
2016,03,14,07,04,6.30
2016,03,14,07,05,5.50
2016,03,14,07,06,7.70
2016,03,14,07,07,8.40
2016,03,14,07,08,8.70
2016,03,14,07,09,9.10
2016,03,14,07,10,10.70
2016,03,14,07,11,9.70
2016,03,14,07,12,6.70
2016,03,14,07,13,10.40
2016,03,14,07,14,7.20
2016,03,14,07,15,4.20
2016,03,14,07,16,3.10
2016,03,14,07,17,8.40
2016,03,14,07,18,5.60
2016,03,14,07,19,3.90
2016,03,14,07,20,3.30
2016,03,14,07,21,3.80
2016,03,14,07,22,3.30
2016,03,14,07,23,2.40
2016,03,14,07,24,6.70
2016,03,14,07,25,5.40
2016,03,14,07,26,5.30
2016,03,14,07,27,3.70
2016,03,14,07,28,4.50
2016,03,14,07,29,3.40
2016,03,14,07,30,2.00
2016,03,14,07,31,2.80
2016,03,14,07,32,2.90
2016,03,14,07,33,1.50
2016,03,14,07,34,0.40
2016,03,14,07,35,0.90
2016,03,14,07,36,3.90
2016,03,14,07,37,3.20
2016,03,14,07,38,3.10
2016,03,14,07,39,2.90
2016,03,14,07,40,1.30
2016,03,14,07,41,2.90
2016,03,14,07,42,2.30
2016,03,14,07,43,2.00
2016,03,14,07,44,1.30
2016,03,14,07,45,0.10
2016,03,14,07,46,0.40
2016,03,14,07,47,0.40
2016,03,14,07,48,0.00
2016,03,14,07,49,0.00
2016,03,14,07,50,0.00
2016,03,14,07,51,0.40
2016,03,14,07,52,0.40
2016,03,14,07,53,0.10
2016,03,14,07,54,0.70
2016,03,14,07,55,1.80
2016,03,14,07,56,0.90
2016,03,14,07,57,0.50
2016,03,14,07,58,0.20
2016,03,14,07,59,0.00
2016,03,14,08,00,0.00
2016,03,14,08,01,0.00
2016,03,14,08,02,0.00
2016,03,14,08,03,0.00
2016,03,14,08,04,0.50
2016,03,14,08,05,0.10
2016,03,14,08,06,0.00
2016,03,14,08,07,0.40
2016,03,14,08,08,0.70
2016,03,14,08,09,0.50
2016,03,14,08,10,0.00
2016,03,14,08,11,0.00
2016,03,14,08,12,0.00
2016,03,14,08,13,0.00
2016,03,14,08,14,0.00
2016,03,14,08,15,0.00
2016,03,14,08,16,0.00
2016,03,14,08,17,0.40
2016,03,14,08,18,1.00
2016,03,14,08,19,0.00
2016,03,14,08,20,0.00
2016,03,14,08,21,0.00
2016,03,14,08,22,0.00
2016,03,14,08,23,0.70
2016,03,14,08,24,2.00
2016,03,14,08,25,2.30
2016,03,14,08,26,2.20
2016,03,14,08,27,1.20
2016,03,14,08,28,1.00
2016,03,14,08,29,1.30
2016,03,14,08,30,2.30
2016,03,14,08,31,2.80
2016,03,14,08,32,3.00
2016,03,14,08,33,2.50
2016,03,14,08,34,3.40
2016,03,14,08,35,3.60
2016,03,14,08,36,3.60
2016,03,14,08,37,4.00
2016,03,14,08,38,1.50
2016,03,14,08,39,2.70
2016,03,14,08,40,3.00
2016,03,14,08,41,3.20
2016,03,14,08,42,2.60
2016,03,14,08,43,2.60
2016,03,14,08,44,1.20
2016,03,14,08,45,2.10
2016,03,14,08,46,2.40
2016,03,14,08,47,2.60
2016,03,14,08,48,3.10
2016,03,14,08,49,1.80
2016,03,14,08,50,2.40
2016,03,14,08,51,4.40
2016,03,14,08,52,3.50
2016,03,14,08,53,3.40
2016,03,14,08,54,4.20
2016,03,14,08,55,3.70
2016,03,14,08,56,3.70
2016,03,14,08,57,2.10
2016,03,14,08,58,3.70
2016,03,14,08,59,4.50
2016,03,14,09,00,4.70
2016,03,14,09,01,4.40
2016,03,14,09,02,2.90
2016,03,14,09,03,2.90
2016,03,14,09,04,3.60
2016,03,14,09,05,4.60
2016,03,14,09,06,4.00
2016,03,14,09,07,3.30
2016,03,14,09,08,2.60
2016,03,14,09,09,3.10
2016,03,14,09,10,2.50
2016,03,14,09,11,3.70
2016,03,14,09,12,3.80
2016,03,14,09,13,5.40
2016,03,14,09,14,5.00
2016,03,14,09,15,3.70
2016,03,14,09,16,5.30
2016,03,14,09,17,4.30
2016,03,14,09,18,4.50
2016,03,14,09,19,4.30
2016,03,14,09,20,3.90
2016,03,14,09,21,5.30
2016,03,14,09,22,6.10
2016,03,14,09,23,5.80
2016,03,14,09,24,5.00
2016,03,14,09,25,4.40
2016,03,14,09,26,4.00
2016,03,14,09,27,4.50
2016,03,14,09,28,3.90
2016,03,14,09,29,3.40
2016,03,14,09,30,7.80
2016,03,14,09,31,5.90
2016,03,14,09,32,5.00
2016,03,14,09,33,4.20
2016,03,14,09,34,4.50
2016,03,14,09,35,5.10
2016,03,14,09,36,5.00
2016,03,14,09,37,3.90
2016,03,14,09,38,4.80
2016,03,14,09,39,5.60
2016,03,14,09,40,4.00
2016,03,14,09,41,5.20
2016,03,14,09,42,6.40
2016,03,14,09,43,4.80
2016,03,14,09,44,4.80
2016,03,14,09,45,4.70
2016,03,14,09,46,5.60
2016,03,14,09,47,7.00
2016,03,14,09,48,7.30
2016,03,14,09,49,7.30
2016,03,14,09,50,7.30
2016,03,14,09,51,5.40
2016,03,14,09,52,3.20
2016,03,14,09,53,5.00
2016,03,14,09,54,3.50
2016,03,14,09,55,3.40
2016,03,14,09,56,4.20
2016,03,14,09,57,3.50
2016,03,14,09,58,1.80
2016,03,14,09,59,1.80
2016,03,14,10,00,2.20
2016,03,14,10,01,5.00
2016,03,14,10,02,3.40
2016,03,14,10,03,3.60
2016,03,14,10,04,3.00
2016,03,14,10,05,4.40
2016,03,14,10,06,4.90
2016,03,14,10,07,4.90
2016,03,14,10,08,3.70
2016,03,14,10,09,4.40
2016,03,14,10,10,3.60
2016,03,14,10,11,5.70
2016,03,14,10,12,7.50
2016,03,14,10,13,4.70
2016,03,14,10,14,4.70
2016,03,14,10,15,5.40
2016,03,14,10,16,4.70
2016,03,14,10,17,5.30
2016,03,14,10,18,6.60
2016,03,14,10,19,7.20
2016,03,14,10,20,5.70
2016,03,14,10,21,8.50
2016,03,14,10,22,7.30
2016,03,14,10,23,6.70
2016,03,14,10,24,8.00
2016,03,14,10,25,8.50
2016,03,14,10,26,4.20
2016,03,14,10,27,3.90
2016,03,14,10,28,5.00
2016,03,14,10,29,9.30
2016,03,14,10,30,10.10
2016,03,14,10,31,6.00
2016,03,14,10,32,8.80
2016,03,14,10,33,12.10
2016,03,14,10,34,11.80
2016,03,14,10,35,12.70
2016,03,14,10,36,10.70
2016,03,14,10,37,10.20
2016,03,14,10,38,12.90
2016,03,14,10,39,11.20
2016,03,14,10,40,10.90
2016,03,14,10,41,14.30
2016,03,14,10,42,17.30
2016,03,14,10,43,14.70
2016,03,14,10,44,13.30
2016,03,14,10,45,13.10
2016,03,14,10,46,11.10
2016,03,14,10,47,12.10
2016,03,14,10,48,9.30
2016,03,14,10,49,5.20
2016,03,14,10,50,4.70
2016,03,14,10,51,10.60
2016,03,14,10,52,12.20
2016,03,14,10,53,14.60
2016,03,14,10,54,12.90
2016,03,14,10,55,11.20
2016,03,14,10,56,11.40
2016,03,14,10,57,14.40
2016,03,14,10,58,10.50
2016,03,14,10,59,10.40
2016,03,14,11,00,6.70
2016,03,14,11,01,11.50
2016,03,14,11,02,12.20
2016,03,14,11,03,8.70
2016,03,14,11,04,6.10
2016,03,14,11,05,11.30
2016,03,14,11,06,11.80
2016,03,14,11,07,8.80
2016,03,14,11,08,8.80
2016,03,14,11,09,7.20
2016,03,14,11,10,10.40
2016,03,14,11,11,11.00
2016,03,14,11,12,8.90
2016,03,14,11,13,8.60
2016,03,14,11,14,9.80
2016,03,14,11,15,10.40
2016,03,14,11,16,9.10
2016,03,14,11,17,13.00
2016,03,14,11,18,11.60
2016,03,14,11,19,9.10
2016,03,14,11,20,10.50
2016,03,14,11,21,10.10
2016,03,14,11,22,9.80
2016,03,14,11,23,7.60
2016,03,14,11,24,7.50
2016,03,14,11,25,7.80
2016,03,14,11,26,8.10
2016,03,14,11,27,7.60
2016,03,14,11,28,8.00
2016,03,14,11,29,8.00
2016,03,14,11,30,10.00
2016,03,14,11,31,11.30
2016,03,14,11,32,10.80
2016,03,14,11,33,10.60
2016,03,14,11,34,6.00
2016,03,14,11,35,4.40
2016,03,14,11,36,6.70
2016,03,14,11,37,5.60
2016,03,14,11,38,5.80
2016,03,14,11,39,8.30
2016,03,14,11,40,12.80
2016,03,14,11,41,10.30
2016,03,14,11,42,8.40
2016,03,14,11,43,11.40
2016,03,14,11,44,8.40
2016,03,14,11,45,3.80
2016,03,14,11,46,6.30
2016,03,14,11,47,8.90
2016,03,14,11,48,8.20
2016,03,14,11,49,6.00
2016,03,14,11,50,7.90
2016,03,14,11,51,7.00
2016,03,14,11,52,8.10
2016,03,14,11,53,8.20
2016,03,14,11,54,8.20
2016,03,14,11,55,6.10
2016,03,14,11,56,5.30
2016,03,14,11,57,2.00
2016,03,14,11,58,4.90
2016,03,14,11,59,3.30
2016,03,14,12,00,3.60
2016,03,14,12,01,6.40
2016,03,14,12,02,7.80
2016,03,14,12,03,5.90
2016,03,14,12,04,4.80
2016,03,14,12,05,5.40
2016,03,14,12,06,3.20
2016,03,14,12,07,6.40
2016,03,14,12,08,8.00
2016,03,14,12,09,7.80
2016,03,14,12,10,3.20
2016,03,14,12,11,4.50
2016,03,14,12,12,10.50
2016,03,14,12,13,9.90
2016,03,14,12,14,4.90
2016,03,14,12,15,3.60
2016,03,14,12,16,5.00
2016,03,14,12,17,3.70
2016,03,14,12,18,6.80
2016,03,14,12,19,9.20
2016,03,14,12,20,10.60
2016,03,14,12,21,8.00
2016,03,14,12,22,5.30
2016,03,14,12,23,5.00
2016,03,14,12,24,2.30
2016,03,14,12,25,4.80
2016,03,14,12,26,4.80
2016,03,14,12,27,3.30
2016,03,14,12,28,3.70
2016,03,14,12,29,2.80
2016,03,14,12,30,1.70
2016,03,14,12,31,7.00
2016,03,14,12,32,8.60
2016,03,14,12,33,3.80
2016,03,14,12,34,2.90
2016,03,14,12,35,1.20
2016,03,14,12,36,5.10
2016,03,14,12,37,8.30
2016,03,14,12,38,9.00
2016,03,14,12,39,7.30
2016,03,14,12,40,7.00
2016,03,14,12,41,8.70
2016,03,14,12,42,6.70
2016,03,14,12,43,7.00
2016,03,14,12,44,8.80
2016,03,14,12,45,8.80
2016,03,14,12,46,11.80
2016,03,14,12,47,11.00
2016,03,14,12,48,10.50
2016,03,14,12,49,8.10
2016,03,14,12,50,7.30
2016,03,14,12,51,7.40
2016,03,14,12,52,8.20
2016,03,14,12,53,7.40
2016,03,14,12,54,7.90
2016,03,14,12,55,7.40
2016,03,14,12,56,6.70
2016,03,14,12,57,8.20
2016,03,14,12,58,6.40
2016,03,14,12,59,7.30
2016,03,14,13,00,4.80
2016,03,14,13,01,7.50
2016,03,14,13,02,6.70
2016,03,14,13,03,5.60
2016,03,14,13,04,11.30
2016,03,14,13,05,10.50
2016,03,14,13,06,11.70
2016,03,14,13,07,8.40
2016,03,14,13,08,8.90
2016,03,14,13,09,11.00
2016,03,14,13,10,10.70
2016,03,14,13,11,10.50
2016,03,14,13,12,12.50
2016,03,14,13,13,12.80
2016,03,14,13,14,15.00
2016,03,14,13,15,10.30
2016,03,14,13,16,11.10
2016,03,14,13,17,8.20
2016,03,14,13,18,12.00
2016,03,14,13,19,7.60
2016,03,14,13,20,9.00
2016,03,14,13,21,12.60
2016,03,14,13,22,12.10
2016,03,14,13,23,9.20
2016,03,14,13,24,7.60
2016,03,14,13,25,6.30
2016,03,14,13,26,6.90
2016,03,14,13,27,9.70
2016,03,14,13,28,11.40
2016,03,14,13,29,12.70
2016,03,14,13,30,13.00
2016,03,14,13,31,12.70
2016,03,14,13,32,12.00
2016,03,14,13,33,11.00
2016,03,14,13,34,9.90
2016,03,14,13,35,8.70
2016,03,14,13,36,12.80
2016,03,14,13,37,13.20
2016,03,14,13,38,8.30
2016,03,14,13,39,8.80
2016,03,14,13,40,9.10
2016,03,14,13,41,10.40
2016,03,14,13,42,13.40
2016,03,14,13,43,8.70
2016,03,14,13,44,11.60
2016,03,14,13,45,13.80
2016,03,14,13,46,10.00
2016,03,14,13,47,8.70
2016,03,14,13,48,6.10
2016,03,14,13,49,10.70
2016,03,14,13,50,11.00
2016,03,14,13,51,8.40
2016,03,14,13,52,7.00
2016,03,14,13,53,6.80
2016,03,14,13,54,10.80
2016,03,14,13,55,12.70
2016,03,14,13,56,13.10
2016,03,14,13,57,9.70
2016,03,14,13,58,12.90
2016,03,14,13,59,14.20
2016,03,14,14,00,13.20
2016,03,14,14,01,9.80
2016,03,14,14,02,13.80
2016,03,14,14,03,10.20
2016,03,14,14,04,11.70
2016,03,14,14,05,12.40
2016,03,14,14,06,17.50
2016,03,14,14,07,12.70
2016,03,14,14,08,8.10
2016,03,14,14,09,8.50
2016,03,14,14,10,10.70
2016,03,14,14,11,9.60
2016,03,14,14,12,10.20
2016,03,14,14,13,6.20
2016,03,14,14,14,7.40
2016,03,14,14,15,8.50
2016,03,14,14,16,12.40
2016,03,14,14,17,12.70
2016,03,14,14,18,18.30
2016,03,14,14,19,14.40
2016,03,14,14,20,11.60
2016,03,14,14,21,11.30
2016,03,14,14,22,11.30
2016,03,14,14,23,11.30
2016,03,14,14,24,9.20
2016,03,14,14,25,9.60
2016,03,14,14,26,10.70
2016,03,14,14,27,6.60
2016,03,14,14,28,10.70
2016,03,14,14,29,13.70
2016,03,14,14,30,16.20
2016,03,14,14,31,13.60
2016,03,14,14,32,11.90
2016,03,14,14,33,8.70
2016,03,14,14,34,11.90
2016,03,14,14,35,11.10
2016,03,14,14,36,13.90
2016,03,14,14,37,10.00
2016,03,14,14,38,11.20
2016,03,14,14,39,14.50
2016,03,14,14,40,13.20
2016,03,14,14,41,15.60
2016,03,14,14,42,12.10
2016,03,14,14,43,9.50
2016,03,14,14,44,10.80
2016,03,14,14,45,8.10
2016,03,14,14,46,12.10
2016,03,14,14,47,10.10
2016,03,14,14,48,14.90
2016,03,14,14,49,21.80
2016,03,14,14,50,20.90
2016,03,14,14,51,24.50
2016,03,14,14,52,17.90
2016,03,14,14,53,20.40
2016,03,14,14,54,14.30
2016,03,14,14,55,13.80
2016,03,14,14,56,10.00
2016,03,14,14,57,9.20
2016,03,14,14,58,15.30
2016,03,14,14,59,10.00
2016,03,14,15,00,13.70
2016,03,14,15,01,8.90
2016,03,14,15,02,9.20
2016,03,14,15,03,8.80
2016,03,14,15,04,11.20
2016,03,14,15,05,7.80
2016,03,14,15,06,6.10
2016,03,14,15,07,10.20
2016,03,14,15,08,7.20
2016,03,14,15,09,10.70
2016,03,14,15,10,13.90
2016,03,14,15,11,9.90
2016,03,14,15,12,13.50
2016,03,14,15,13,6.70
2016,03,14,15,14,9.10
2016,03,14,15,15,12.40
2016,03,14,15,16,13.00
2016,03,14,15,17,10.10
2016,03,14,15,18,10.10
2016,03,14,15,19,9.50
2016,03,14,15,20,10.50
2016,03,14,15,21,10.90
2016,03,14,15,22,18.40
2016,03,14,15,23,12.40
2016,03,14,15,24,12.10
2016,03,14,15,25,10.10
2016,03,14,15,26,9.70
2016,03,14,15,27,13.20
2016,03,14,15,28,15.80
2016,03,14,15,29,15.00
2016,03,14,15,30,15.50
2016,03,14,15,31,17.50
2016,03,14,15,32,12.00
2016,03,14,15,33,16.80
2016,03,14,15,34,13.30
2016,03,14,15,35,14.00
2016,03,14,15,36,8.30
2016,03,14,15,37,12.40
2016,03,14,15,38,13.00
2016,03,14,15,39,17.60
2016,03,14,15,40,14.20
2016,03,14,15,41,12.60
2016,03,14,15,42,12.00
2016,03,14,15,43,9.70
2016,03,14,15,44,8.60
2016,03,14,15,45,10.90
2016,03,14,15,46,9.10
2016,03,14,15,47,9.40
2016,03,14,15,48,10.80
2016,03,14,15,49,12.00
2016,03,14,15,50,11.40
2016,03,14,15,51,9.10
2016,03,14,15,52,15.40
2016,03,14,15,53,10.30
2016,03,14,15,54,8.00
2016,03,14,15,55,6.10
2016,03,14,15,56,7.30
2016,03,14,15,57,10.70
2016,03,14,15,58,14.80
2016,03,14,15,59,12.00
2016,03,14,16,00,7.90
2016,03,14,16,01,8.50
2016,03,14,16,02,12.80
2016,03,14,16,03,10.20
2016,03,14,16,04,8.30
2016,03,14,16,05,9.40
2016,03,14,16,06,8.60
2016,03,14,16,07,10.00
2016,03,14,16,08,8.50
2016,03,14,16,09,10.90
2016,03,14,16,10,10.10
2016,03,14,16,11,11.30
2016,03,14,16,12,11.20
2016,03,14,16,13,9.60
2016,03,14,16,14,14.90
2016,03,14,16,15,13.50
2016,03,14,16,16,9.80
2016,03,14,16,17,9.00
2016,03,14,16,18,15.90
2016,03,14,16,19,17.40
2016,03,14,16,20,16.70
2016,03,14,16,21,18.20
2016,03,14,16,22,14.00
2016,03,14,16,23,10.90
2016,03,14,16,24,8.90
2016,03,14,16,25,7.20
2016,03,14,16,26,11.90
2016,03,14,16,27,10.60
2016,03,14,16,28,11.20
2016,03,14,16,29,13.20
2016,03,14,16,30,8.90
2016,03,14,16,31,11.60
2016,03,14,16,32,10.90
2016,03,14,16,33,13.70
2016,03,14,16,34,13.50
2016,03,14,16,35,13.40
2016,03,14,16,36,13.60
2016,03,14,16,37,12.10
2016,03,14,16,38,11.10
2016,03,14,16,39,16.90
2016,03,14,16,40,12.20
2016,03,14,16,41,19.20
2016,03,14,16,42,17.90
2016,03,14,16,43,18.60
2016,03,14,16,44,14.60
2016,03,14,16,45,13.50
2016,03,14,16,46,12.70
2016,03,14,16,47,15.00
2016,03,14,16,48,14.00
2016,03,14,16,49,14.80
2016,03,14,16,50,11.60
2016,03,14,16,51,10.60
2016,03,14,16,52,17.80
2016,03,14,16,53,17.50
2016,03,14,16,54,13.40
2016,03,14,16,55,15.20
2016,03,14,16,56,15.90
2016,03,14,16,57,17.40
2016,03,14,16,58,12.60
2016,03,14,16,59,10.40
2016,03,14,17,00,18.70
2016,03,14,17,01,20.60
2016,03,14,17,02,18.60
2016,03,14,17,03,16.30
2016,03,14,17,04,21.10
2016,03,14,17,05,16.90
2016,03,14,17,06,16.90
2016,03,14,17,07,16.20
2016,03,14,17,08,15.60
2016,03,14,17,09,16.10
2016,03,14,17,10,12.30
2016,03,14,17,11,18.10
2016,03,14,17,12,15.80
2016,03,14,17,13,11.30
2016,03,14,17,14,9.10
2016,03,14,17,15,12.90
2016,03,14,17,16,10.30
2016,03,14,17,17,16.60
2016,03,14,17,18,19.90
2016,03,14,17,19,18.30
2016,03,14,17,20,16.50
2016,03,14,17,21,16.70
2016,03,14,17,22,17.10
2016,03,14,17,23,15.40
2016,03,14,17,24,16.20
2016,03,14,17,25,10.60
2016,03,14,17,26,14.90
2016,03,14,17,27,18.30
2016,03,14,17,28,17.80
2016,03,14,17,29,21.50
2016,03,14,17,30,16.10
2016,03,14,17,31,19.10
2016,03,14,17,32,23.30
2016,03,14,17,33,18.70
2016,03,14,17,34,15.10
2016,03,14,17,35,13.00
2016,03,14,17,36,14.40
2016,03,14,17,37,10.50
2016,03,14,17,38,13.10
2016,03,14,17,39,15.30
2016,03,14,17,40,12.50
2016,03,14,17,41,10.50
2016,03,14,17,42,12.80
2016,03,14,17,43,11.20
2016,03,14,17,44,13.30
2016,03,14,17,45,14.00
2016,03,14,17,46,15.40
2016,03,14,17,47,12.20
2016,03,14,17,48,10.70
2016,03,14,17,49,10.50
2016,03,14,17,50,12.30
2016,03,14,17,51,7.30
2016,03,14,17,52,8.80